Pasco, WA

5:29 PM PST on December 16, 2017 (GMT -0800)
Tri-Cities

Weather History for KPSC - November, 2013

Change the Weather History Date:

Wednesday, November 13, 2013

  Actual Average Record
Temperature  
Mean Temperature 45 °F 42 °F  
Max Temperature 60 °F 51 °F 77 °F (1999)
Min Temperature 29 °F 33 °F 5 °F (1916)
Degree Days  
Heating Degree Days 20 23  
Month to date heating degree days 266 269  
Since 1 July heating degree days 819 787  
Cooling Degree Days 0 0  
Month to date cooling degree days 0 0  
Year to date cooling degree days 995 710  
Moisture  
Dew Point 34 °F    
Average Humidity 76    
Maximum Humidity 100    
Minimum Humidity 51    
Precipitation  
Precipitation 0.00 in 0.04 in 0.59 in (1897)
Month to date precipitation 0.35 0.42  
Year to date precipitation 4.70 6.95  
Snow  
Snow 0.00 in - - ()
Snow Depth 0.00 in    
Sea Level Pressure  
Sea Level Pressure 30.37 in    
Wind  
Wind Speed 4 mph (NNW)    
Max Wind Speed 9 mph    
Max Gust Speed 28 mph    
Visibility 4 miles    
Events Fog    
T = Trace of Precipitation, MM = Missing Value Source: NWS Daily Summary

Daily Weather History Graph

Daily Weather History Graph

Search for Another Location

Airport or City:

Trip Planner

Search our weather history database for the weather conditions in past years. The results will help you decide how hot, cold, wet, or windy it might be!

Date:

Astronomy

Nov. 13, 2013 Rise Set
Actual Time 6:55 AM PST 4:25 PM PST
Civil Twilight 6:22 AM PST 4:58 PM PST
Nautical Twilight 5:46 AM PST 5:34 PM PST
Astronomical Twilight 5:11 AM PST 6:09 PM PST
Moon 2:26 PM PST (11/13) 2:40 AM PST (11/13)
Length of Visible Light 10h 35m
Length of Day
9h 30m
Waxing Gibbous, 85% of the Moon is Illuminated
Nov 13
Waxing Gibbous
Nov 17
Full
Nov 25
Last Quarter
Dec 2
New
Dec 9
First Quarter

Hourly Weather History & Observations

Time (PST) Temp. Windchill Dew Point Humidity Pressure Visibility Wind Dir Wind Speed Gust Speed Precip Events Conditions
12:41 AM 32.0 °F 26.4 °F 32.0 °F 100% 30.37 in 1.8 mi North 5.8 mph - N/A   Clear
12:46 AM 32.0 °F 27.5 °F 30.2 °F 93% 30.37 in 0.8 mi North 4.6 mph - N/A   Mist
12:53 AM 30.9 °F 26.2 °F 30.9 °F 100% 30.38 in 0.5 mi North 4.6 mph - N/A Fog Light Freezing Fog
1:01 AM 32.0 °F 26.4 °F 30.2 °F 93% 30.37 in 1.2 mi North 5.8 mph - N/A   Partly Cloudy
1:13 AM 32.0 °F 27.5 °F 32.0 °F 100% 30.37 in 2.5 mi North 4.6 mph - N/A   Partly Cloudy
1:23 AM 32.0 °F 28.7 °F 32.0 °F 100% 30.37 in 3.0 mi NNW 3.5 mph - N/A   Clear
1:30 AM 32.0 °F 27.5 °F 30.2 °F 93% 30.37 in 2.5 mi NNW 4.6 mph - N/A   Clear
1:36 AM 30.2 °F 23.4 °F 30.2 °F 100% 30.37 in 3.0 mi NNW 6.9 mph - N/A   Partly Cloudy
1:51 AM 30.2 °F 24.3 °F 30.2 °F 100% 30.38 in 3.0 mi NNW 5.8 mph - N/A   Mostly Cloudy
1:53 AM 30.9 °F 24.3 °F 30.9 °F 100% 30.39 in 3.0 mi NNW 6.9 mph - N/A   Mostly Cloudy
2:11 AM 32.0 °F 27.5 °F 30.2 °F 93% 30.39 in 4.0 mi NNW 4.6 mph - N/A   Overcast
2:42 AM 32.0 °F 28.7 °F 30.2 °F 93% 30.38 in 4.0 mi North 3.5 mph - N/A   Partly Cloudy
2:53 AM 32.0 °F - 30.9 °F 96% 30.39 in 4.0 mi Calm Calm - N/A   Partly Cloudy
3:27 AM 30.2 °F 26.7 °F 30.2 °F 100% 30.38 in 4.0 mi NNW 3.5 mph - N/A   Mostly Cloudy
3:53 AM 30.9 °F 27.5 °F 30.0 °F 96% 30.38 in 4.0 mi North 3.5 mph - N/A   Overcast
4:21 AM 30.2 °F 25.4 °F 30.2 °F 100% 30.37 in 1.5 mi NNE 4.6 mph - N/A   Overcast
4:28 AM 28.4 °F - 28.4 °F 100% 30.38 in 0.2 mi Calm Calm - N/A Fog Light Freezing Fog
4:53 AM 30.0 °F 25.2 °F 30.0 °F 100% 30.39 in 0.2 mi North 4.6 mph - N/A Fog Light Freezing Fog
5:00 AM 30.2 °F 25.4 °F 30.2 °F 100% 30.38 in 0.2 mi NNW 4.6 mph - N/A Fog Light Freezing Fog
5:46 AM 30.2 °F 26.7 °F 30.2 °F 100% 30.39 in 0.8 mi NNE 3.5 mph - N/A   Mist
5:53 AM 30.9 °F - 30.0 °F 96% 30.40 in 0.5 mi Calm Calm - N/A Fog Fog
6:02 AM 30.2 °F - 30.2 °F 100% 30.39 in 0.5 mi Calm Calm - N/A Fog Light Freezing Fog
6:53 AM 32.0 °F - 30.9 °F 96% 30.40 in 0.2 mi Calm Calm - N/A Fog Fog
7:53 AM 32.0 °F - 32.0 °F 100% 30.42 in 0.2 mi Calm Calm - N/A Fog Fog
8:05 AM 32.0 °F 28.7 °F 32.0 °F 100% 30.42 in 0.2 mi North 3.5 mph - N/A Fog Fog
8:15 AM 33.8 °F 28.6 °F 33.8 °F 100% 30.42 in 0.2 mi NW 5.8 mph - N/A Fog Fog
8:53 AM 36.0 °F - 36.0 °F 100% 30.43 in 0.2 mi Calm Calm - N/A Fog Fog
9:53 AM 39.9 °F - 39.9 °F 100% 30.42 in 0.2 mi Calm Calm - N/A Fog Fog
10:15 AM 41.0 °F - 41.0 °F 100% 30.42 in 3.0 mi Calm Calm - N/A   Scattered Clouds
10:53 AM 45.0 °F - 44.1 °F 97% 30.42 in 3.0 mi Calm Calm - N/A   Scattered Clouds
11:53 AM 55.0 °F - 44.1 °F 67% 30.38 in 10.0 mi Variable 4.6 mph - N/A   Clear
12:53 PM 57.9 °F - 43.0 °F 58% 30.37 in 10.0 mi West 3.5 mph - N/A   Clear
1:53 PM 59.0 °F - 43.0 °F 55% 30.36 in 10.0 mi Calm Calm - N/A   Clear
2:53 PM 60.1 °F - 42.1 °F 51% 30.35 in 10.0 mi SE 3.5 mph - N/A   Clear
3:53 PM 57.0 °F - 44.1 °F 62% 30.35 in 10.0 mi SSW 8.1 mph - N/A   Clear
4:53 PM 52.0 °F - 44.1 °F 74% 30.35 in 10.0 mi SSW 5.8 mph - N/A   Clear
5:53 PM 48.0 °F - 42.1 °F 80% 30.34 in 10.0 mi NNW 3.5 mph - N/A   Clear
6:53 PM 43.0 °F 40.3 °F 39.0 °F 86% 30.34 in 10.0 mi North 4.6 mph - N/A   Clear
7:53 PM 39.9 °F - 37.9 °F 93% 30.33 in 10.0 mi Calm Calm - N/A   Clear
8:53 PM 43.0 °F - 39.9 °F 89% 30.32 in 10.0 mi Calm Calm - N/A   Clear
9:53 PM 39.0 °F 36.8 °F 37.0 °F 93% 30.31 in 10.0 mi East 3.5 mph - N/A   Clear
10:53 PM 34.0 °F - 34.0 °F 100% 30.30 in 4.0 mi Calm Calm - N/A   Clear
11:53 PM 33.1 °F 27.7 °F 32.0 °F 96% 30.27 in 3.0 mi North 5.8 mph - N/A   Clear